Hourly Weather Roundup
Issued by NWS Central Illinois

Home | Current Version | Previous Version | Text Only | Print | Product List | Glossary On
Versions: 1 2 3 4 5 6 7 8 9 10 11 12 13 14 15 16 17 18 19 20 21 22 23 24 25 26 27 28 29 30 31 32 33 34 35 36 37 38 39 40 41 42 43 44 45 46 47 48 49 50
000
NZUS43 KILX 242110
HWRILX

AREA WEATHER ROUNDUP
NATIONAL WEATHER SERVICE, LINCOLN IL
300 PM CST TUE JAN 24 2017


CITY           SKY/WX    TMP DP  RH WIND       PRES   REMARKS
BLOOMINGTON    CLOUDY    39  34  82 SE9       29.82F WCI  33
CHAMPAIGN      CLOUDY    41  33  73 SE8       29.84F
DANVILLE       CLOUDY    40  33  76 CALM      29.82F
DECATUR        CLOUDY    41  36  82 SE13      29.81F WCI  34
EFFINGHAM      CLOUDY    45  38  75 E9        29.85S
FLORA          MOSUNNY   48  38  66 S9        29.85R
GALESBURG      CLOUDY    38  33  82 E12       29.77F WCI  30
JACKSONVILLE   CLOUDY    43  35  73 E16       29.77R
LACON          CLOUDY    39  33  80 SE6       29.81F WCI  35
LAWRENCEVILLE  CLOUDY    43  36  76 S6        29.87F
LITCHFIELD     CLOUDY    44  36  73 SE12      29.76F
$$


CITY           SKY/WX    TMP DP  RH WIND       PRES   REMARKS
LINCOLN        CLOUDY    41  35  77 SE8       29.81S
MACOMB         CLOUDY    39  34  82 E13       29.78F WCI  32
MATTOON        CLOUDY    41  34  76 SE6       29.82F
MT CARMEL AP   CLOUDY    43  34  70 SE5       29.86F
OLNEY-NOBLE AP CLOUDY    45  36  70 SE7       29.85F
PARIS          CLOUDY    40  35  80 CALM      29.87S
PEORIA         CLOUDY    39  33  79 SE7       29.81F WCI  34
PONTIAC        CLOUDY    40  37  87 SE5       29.84F
RANTOUL          N/A    N/A N/A N/A MISG        N/A
SPRINGFIELD    PTSUNNY   45  35  68 SE12      29.80F
TAYLORVILLE    MOSUNNY   44  35  70 SE12      29.79F
$$

...REGIONAL REPORTS...


CITY           SKY/WX    TMP DP  RH WIND       PRES   REMARKS
CHICAGO O`HARE CLOUDY    36  31  82 S5        29.85R WCI  32
KANKAKEE       CLOUDY    39  32  76 CALM      29.86R
MOLINE         CLOUDY    37  32  82 SE9       29.79F WCI  30
MOUNT STERLING CLOUDY    40  33  76 E13       29.73F WCI  33
MOUNT VERNON   MOSUNNY   48  36  63 SE8       29.81F
PITTSFIELD     CLOUDY    42  35  75 E8        29.72F
QUINCY         CLOUDY    40  33  76 E16G22    29.69F WCI  31
ROCKFORD       CLOUDY    36  31  82 SE5       29.84S WCI  32
$$


CITY           SKY/WX    TMP DP  RH WIND       PRES   REMARKS
BURLINGTON     CLOUDY    39  33  79 SE14      29.74F WCI  31
CEDAR RAPIDS   CLOUDY    32  30  92 E8        29.74F FOG     WCI  25
DES MOINES     CLOUDY    33  30  88 E10G21    29.63F WCI  25
KIRKSVILLE     CLOUDY    37  33  85 E18G25    29.59F WCI  27
OTTUMWA        CLOUDY    34  30  85 E18       29.65F WCI  23
ST LOUIS       CLOUDY    52  34  50 SE20      29.73F
$$


CITY           SKY/WX    TMP DP  RH WIND       PRES   REMARKS
TERRE HAUTE    CLOUDY    42  33  70 SE5       29.87R
EVANSVILLE     PTSUNNY   45  34  65 E3        29.87F
INDIANAPOLIS   CLOUDY    41  32  70 NW6       29.85R
LAFAYETTE      CLOUDY    39  33  79 CALM      29.86S
MADISON        CLOUDY    37  31  78 CALM      29.82S
MILWAUKEE      CLOUDY    39  32  76 NW3       29.83S
$$






USA.gov is the U.S. government's official web portal to all federal, state and local government web resources and services.